User: anonymous   Login
Location: Unspecified
(0.0000°N, 0.0000°E)
Time: 08:57:13
(UTC+02:00)
Language:

AO-40 - Orbit

View from above orbital plane
View from above orbital plane
View from above satellite
View from above satellite

Ground track
Ground track

The orbit data is extracted from the following two-line orbital elements,

1 26609U 00072B   18114.31058160 -.00000407 +00000-0 +00000-0 0  9993
2 26609 006.1633 160.9518 7952291 238.5513 022.1151 01.25588338080133
Epoch (UTC): 24 April 2018 07:27:14
Eccentricity: 0.7952291
inclination: 6.1633°
perigee height: 1052 km
apogee height: 58767 km
right ascension of ascending node: 160.9518°
argument of perigee: 238.5513°
revolutions per day: 1.25588338
mean anomaly at epoch: 22.1151°
orbit number at epoch: 8013

The dashed part of the orbit path shows where the satellite is in the earth's shadow,  

DLR